Weather History for EHVL - November, 2012

Change the Weather History Date:

Wednesday, November 14, 2012

  Actual Average Record
Temperature  
Mean Temperature 47 °F -  
Max Temperature 50 °F 48 °F 55 °F (2006)
Min Temperature 44 °F 42 °F 33 °F (2011)
Degree Days  
Heating Degree Days 18    
Moisture  
Dew Point 47 °F    
Average Humidity 93    
Maximum Humidity 100    
Minimum Humidity 87    
Precipitation  
Precipitation 0.00 in - - ()
Sea Level Pressure  
Sea Level Pressure 30.36 in    
Wind  
Wind Speed 8 mph ()    
Max Wind Speed 14 mph    
Max Gust Speed -    
Visibility 4.7 miles    
Events      
Averages and records for this station are not official NWS values.
T = Trace of Precipitation, MM = Missing Value Source: Averaged Metar Reports

Daily Weather History Graph

Daily Weather History Graph

Search for Another Location

Airport or City:

Trip Planner

Search our weather history database for the weather conditions in past years. The results will help you decide how hot, cold, wet, or windy it might be!

Date:

Astronomy

Nov. 14, 2012 Rise Set
Actual Time 8:03 AM CET 4:45 PM CET
Civil Twilight 7:24 AM CET 5:23 PM CET
Nautical Twilight 6:42 AM CET 6:06 PM CET
Astronomical Twilight 6:01 AM CET 6:47 PM CET
Moon 8:42 AM CET (11/14) 5:09 PM CET (11/14)
Length of Visible Light 9h 58m
Length of Day
8h 41m
New Moon, 0% of the Moon is Illuminated
Nov 14
New Moon
Nov 20
First Quarter
Nov 28
Full
Dec 6
Last Quarter
Dec 13
New

Hourly Weather History & Observations

Time (CET) Temp. Windchill Dew Point Humidity Pressure Visibility Wind Dir Wind Speed Gust Speed Precip Events Conditions
12:25 AM 50.0 °F - 48.2 °F 94% 30.39 in - SSW 13.8 mph - N/A   Overcast
12:55 AM 50.0 °F - 48.2 °F 94% 30.39 in - SSW 11.5 mph - N/A   Overcast
12:59 AM 50.0 °F - 48.2 °F 94% 30.39 in - SSW 11.5 mph - N/A   Overcast
1:16 AM 50.0 °F - 48.2 °F 94% 30.39 in - South 10.4 mph - N/A   Overcast
1:25 AM 50.0 °F - 48.2 °F 94% 30.39 in 2.2 mi South 10.4 mph - N/A   Overcast
1:50 AM 50.0 °F - 48.2 °F 94% 30.39 in - South 10.4 mph - N/A   Overcast
1:55 AM 50.0 °F - 48.2 °F 94% 30.39 in - South 9.2 mph - N/A   Overcast
2:00 AM 50.0 °F - 48.2 °F 94% 30.39 in - SSW 10.4 mph - N/A   Overcast
2:13 AM 50.0 °F - 48.2 °F 94% 30.39 in - South 10.4 mph - N/A   Overcast
2:25 AM 50.0 °F - 48.2 °F 94% 30.39 in - SSW 10.4 mph - N/A   Overcast
2:55 AM 50.0 °F - 48.2 °F 94% 30.39 in - SSW 10.4 mph - N/A   Overcast
2:59 AM 50.0 °F - 48.2 °F 94% 30.39 in 3.1 mi SSW 11.5 mph - N/A   Overcast
3:12 AM 50.0 °F - 48.2 °F 94% 30.39 in 3.1 mi SSW 10.4 mph - N/A   Overcast
3:25 AM 50.0 °F - 48.2 °F 94% 30.39 in 3.1 mi South 8.1 mph - N/A   Overcast
3:55 AM 50.0 °F - 48.2 °F 94% 30.39 in 3.1 mi South 6.9 mph - N/A   Overcast
4:25 AM 48.2 °F - 48.2 °F 100% 30.39 in 3.1 mi South 9.2 mph - N/A   Overcast
4:55 AM 48.2 °F - 48.2 °F 100% 30.39 in 3.7 mi South 10.4 mph - N/A   Overcast
5:25 AM 48.2 °F - 48.2 °F 100% 30.39 in 3.1 mi South 10.4 mph - N/A   Overcast
5:55 AM 48.2 °F - 48.2 °F 100% 30.39 in 3.1 mi South 8.1 mph - N/A   Overcast
6:25 AM 48.2 °F - 48.2 °F 100% 30.39 in 3.7 mi South 6.9 mph - N/A   Overcast
6:55 AM 48.2 °F - 48.2 °F 100% 30.39 in 3.1 mi South 8.1 mph - N/A   Overcast
7:25 AM 48.2 °F - 48.2 °F 100% 30.39 in 3.1 mi South 9.2 mph - N/A   Overcast
7:55 AM 48.2 °F - 48.2 °F 100% 30.39 in 3.1 mi South 9.2 mph - N/A   Overcast
8:25 AM 48.2 °F - 48.2 °F 100% 30.39 in 3.7 mi South 10.4 mph - N/A   Overcast
8:55 AM 50.0 °F - 48.2 °F 94% 30.39 in 3.7 mi South 10.4 mph - N/A   Overcast
9:25 AM 50.0 °F - 48.2 °F 94% 30.39 in 4.3 mi South 8.1 mph - N/A   Overcast
9:55 AM 50.0 °F - 48.2 °F 94% 30.39 in 5.0 mi South 8.1 mph - N/A   Overcast
9:59 AM 50.0 °F - 48.2 °F 94% 30.39 in 4.3 mi South 8.1 mph - N/A   Overcast
10:04 AM 50.0 °F - 48.2 °F 94% 30.39 in 5.0 mi South 8.1 mph - N/A   Overcast
10:08 AM 50.0 °F - 48.2 °F 94% 30.39 in 4.3 mi South 6.9 mph - N/A   Overcast
10:11 AM 50.0 °F - 48.2 °F 94% 30.39 in 5.0 mi South 6.9 mph - N/A   Overcast
10:25 AM 50.0 °F - 48.2 °F 94% 30.39 in 5.0 mi South 6.9 mph - N/A   Overcast
10:29 AM 50.0 °F - 48.2 °F 94% 30.39 in 4.3 mi South 6.9 mph - N/A   Overcast
10:33 AM 50.0 °F - 48.2 °F 94% 30.39 in 5.0 mi South 6.9 mph - N/A   Overcast
10:39 AM 50.0 °F - 48.2 °F 94% 30.39 in 4.3 mi South 8.1 mph - N/A   Overcast
10:55 AM 50.0 °F - 48.2 °F 94% 30.39 in 4.3 mi South 6.9 mph - N/A   Overcast
11:25 AM 50.0 °F - 48.2 °F 94% 30.39 in 4.3 mi South 6.9 mph - N/A   Overcast
11:55 AM 50.0 °F - 48.2 °F 94% 30.39 in 4.3 mi SSE 6.9 mph - N/A   Overcast
12:25 PM 50.0 °F - 48.2 °F 94% 30.39 in 4.3 mi SSE 6.9 mph - N/A   Overcast
12:42 PM 50.0 °F - 48.2 °F 94% 30.36 in 5.0 mi SSE 6.9 mph - N/A   Overcast
12:46 PM 50.0 °F - 48.2 °F 94% 30.36 in 4.3 mi SSE 6.9 mph - N/A   Overcast
12:51 PM 50.0 °F - 48.2 °F 94% 30.36 in 5.0 mi SSE 6.9 mph - N/A   Overcast
12:55 PM 50.0 °F - 48.2 °F 94% 30.36 in 5.0 mi SSE 6.9 mph - N/A   Overcast
12:59 PM 50.0 °F - 48.2 °F 94% 30.36 in 4.3 mi SSE 6.9 mph - N/A   Overcast
1:03 PM 50.0 °F - 48.2 °F 94% 30.36 in 5.0 mi South 6.9 mph - N/A   Overcast
1:16 PM 50.0 °F - 48.2 °F 94% 30.36 in 5.0 mi South 5.8 mph - N/A   Overcast
1:25 PM 50.0 °F - 48.2 °F 94% 30.36 in 5.0 mi South 3.5 mph - N/A   Overcast
1:39 PM 50.0 °F - 48.2 °F 94% 30.36 in 4.3 mi SSE 5.8 mph - N/A   Overcast
1:43 PM 50.0 °F - 48.2 °F 94% 30.36 in 5.0 mi SSE 5.8 mph - N/A   Overcast
1:55 PM 50.0 °F - 48.2 °F 94% 30.36 in 5.6 mi SSE 6.9 mph - N/A   Overcast
2:25 PM 50.0 °F - 46.4 °F 87% 30.36 in 6.2 mi SSE 8.1 mph - N/A   Overcast
2:55 PM 50.0 °F - 46.4 °F 87% 30.33 in 6.2 mi SSE 8.1 mph - N/A   Overcast
3:25 PM 50.0 °F - 46.4 °F 87% 30.33 in 6.2 mi SSE 8.1 mph - N/A   Overcast
3:55 PM 48.2 °F - 46.4 °F 93% 30.33 in 6.2 mi SE 8.1 mph - N/A   Overcast
4:25 PM 48.2 °F - 46.4 °F 93% 30.33 in 6.2 mi SE 6.9 mph - N/A   Overcast
4:55 PM 48.2 °F - 44.6 °F 87% 30.33 in 6.2 mi SE 5.8 mph - N/A   Overcast
5:25 PM 48.2 °F - 44.6 °F 87% 30.33 in 6.2 mi SE 5.8 mph - N/A   Overcast
5:55 PM 48.2 °F - 44.6 °F 87% 30.33 in 6.2 mi ESE 5.8 mph - N/A   Overcast
6:25 PM 48.2 °F - 44.6 °F 87% 30.33 in 6.2 mi ESE 4.6 mph - N/A   Overcast
6:55 PM 48.2 °F - 44.6 °F 87% 30.33 in 6.2 mi ESE 5.8 mph - N/A   Overcast
7:25 PM 48.2 °F - 44.6 °F 87% 30.33 in 6.2 mi East 4.6 mph - N/A   Overcast
7:55 PM 48.2 °F - 44.6 °F 87% 30.33 in 6.2 mi East 4.6 mph - N/A   Overcast
8:25 PM 48.2 °F - 44.6 °F 87% 30.33 in 5.6 mi ESE 5.8 mph - N/A   Overcast
8:55 PM 46.4 °F 43.5 °F 44.6 °F 93% 30.33 in 5.6 mi East 5.8 mph - N/A   Mostly Cloudy
9:25 PM 46.4 °F 43.5 °F 44.6 °F 93% 30.30 in 5.6 mi East 5.8 mph - N/A   Overcast
9:42 PM 46.4 °F 44.3 °F 44.6 °F 93% 30.30 in 4.3 mi East 4.6 mph - N/A   Mostly Cloudy
9:48 PM 46.4 °F 43.5 °F 44.6 °F 93% 30.30 in 5.0 mi East 5.8 mph - N/A   Overcast
9:55 PM 46.4 °F 43.5 °F 44.6 °F 93% 30.30 in 4.3 mi East 5.8 mph - N/A   Mostly Cloudy
10:09 PM 46.4 °F 42.9 °F 44.6 °F 93% 30.30 in 5.0 mi East 6.9 mph - N/A   Mostly Cloudy
10:13 PM 46.4 °F 42.9 °F 44.6 °F 93% 30.30 in 4.3 mi East 6.9 mph - N/A   Mostly Cloudy
10:17 PM 46.4 °F 42.9 °F 44.6 °F 93% 30.30 in 5.0 mi East 6.9 mph - N/A   Mostly Cloudy
10:25 PM 46.4 °F 43.5 °F 44.6 °F 93% 30.30 in 5.0 mi East 5.8 mph - N/A   Partly Cloudy
10:30 PM 46.4 °F 43.5 °F 44.6 °F 93% 30.30 in 4.3 mi East 5.8 mph - N/A   Mist
10:31 PM 46.4 °F 43.5 °F 42.8 °F 87% 30.30 in 5.0 mi East 5.8 mph - N/A   Mist
10:38 PM 44.6 °F 41.4 °F 42.8 °F 93% 30.30 in 4.3 mi East 5.8 mph - N/A   Partly Cloudy
10:42 PM 44.6 °F 42.2 °F 42.8 °F 93% 30.30 in 5.0 mi East 4.6 mph - N/A   Mostly Cloudy
10:50 PM 44.6 °F 41.4 °F 42.8 °F 93% 30.30 in 4.3 mi East 5.8 mph - N/A   Overcast
10:55 PM 44.6 °F 41.4 °F 42.8 °F 93% 30.30 in 4.3 mi East 5.8 mph - N/A   Overcast
11:06 PM 44.6 °F 42.2 °F 42.8 °F 93% 30.30 in 5.0 mi East 4.6 mph - N/A   Mostly Cloudy
11:19 PM 46.4 °F 43.5 °F 44.6 °F 93% 30.30 in 6.2 mi East 5.8 mph - N/A   Overcast
11:25 PM 44.6 °F 41.4 °F 42.8 °F 93% 30.30 in 6.2 mi East 5.8 mph - N/A   Overcast
11:39 PM 44.6 °F 40.7 °F 42.8 °F 93% 30.30 in 5.0 mi ESE 6.9 mph - N/A   Mostly Cloudy
11:55 PM 46.4 °F 43.5 °F 44.6 °F 93% 30.30 in 5.6 mi ESE 5.8 mph - N/A   Scattered Clouds